[[{"header":{"parameterUnit":"m.s-1","parameterCategory":2,"la1":30.2991,"la2":30.254,"lo1":-89.0895,"lo2":-89.0444,"dy":0.0017,"dx":0.0017,"nx":28,"ny":28,"refTime":"2024-05-13T21:00:00:Z","depth":"0","parameterNumber":2,"parameterNumberName":"U-component_of_CURRENTS"},"data":[0,0,0,0,0,0,0,0,0,0,0,0,0,0,0,0,0,0,0,0,0,0,0,0,0,0,0,0,0,0,0,0,0,0,0,0,0,0,0,0,0,0,0,0,0,0,0,0,0,0,0,0,0,0,0,0,0,0,0.2625,0.2624,0,0.2589,0.2589,0.2589,0.2586,0.2586,0.2587,0.2587,0.2565,0.2564,0.2563,0,0,0,0,0,0,0,0,0,0,0,0,0,0.2734,0.2732,0.2625,0.2624,0.2624,0.259,0.2589,0.2589,0.2586,0.2586,0.2587,0.2587,0.2565,0.2564,0.2563,0,0,0,0,0,0,0,0,0,0,0,0,0,0.2691,0.2731,0.2625,0.2619,0.2618,0.259,0.2589,0.2588,0.2586,0.2586,0.2587,0.2588,0.2566,0.2564,0.2563,0.2542,0,0,0.2559,0.2558,0,0,0,0,0,0,0,0,0.2694,0.2687,0.262,0.2619,0.2618,0.2593,0.262,0.2574,0.2586,0.2598,0.2587,0.2588,0.2575,0.2573,0.2565,0.2541,0.254,0.2558,0.2558,0.2557,0.2556,0,0,0,0,0,0,0,0.2696,0.2689,0.261,0.2619,0.2618,0.2633,0.2627,0.2611,0.2583,0.2597,0.2596,0.2593,0.2575,0.2566,0.2564,0.2539,0.2558,0.2557,0.2556,0.2556,0.257,0.2571,0,0,0,0,0,0,0.2698,0.2691,0.2612,0.2609,0.2658,0.263,0.2624,0.26,0.2583,0.2581,0.2592,0.2593,0.2568,0.2566,0.2563,0.2592,0.2557,0.2556,0.2555,0.2569,0.257,0.2572,0,0,0,0,0,0,0.27,0.269,0.2613,0.2651,0.2643,0.2627,0.2601,0.2599,0.2598,0.258,0.2578,0.2595,0.2569,0.2565,0.2566,0.259,0.2555,0.2554,0.2567,0.2569,0.2571,0.2615,0,0,0,0,0,0,0.2703,0.2691,0.268,0.265,0.264,0.2606,0.2601,0.2598,0.2595,0.2595,0.2581,0.2579,0.2569,0.2568,0.2565,0.2587,0.2552,0.2566,0.2568,0.257,0.2612,0.2618,0.2624,0,0,0,0,0,0.2706,0.2672,0.2679,0.267,0.2623,0.2606,0.2603,0.2595,0.2594,0.2596,0.2593,0.258,0.2581,0.2568,0.2563,0.2586,0.2564,0.2567,0.257,0.261,0.2617,0.2624,0,0,0,0,0,0,0.2708,0.2668,0.2675,0.263,0.2631,0.2606,0.2598,0.2598,0.2595,0.2596,0.2584,0.2582,0.2597,0.2583,0.2569,0.26,0.2575,0.2577,0.2607,0.2614,0.262,0.2634,0.2551,0,0,0,0,0,0.2707,0.2671,0.2658,0.2627,0.2626,0.2619,0.2612,0.2611,0.2601,0.26,0.2594,0.2594,0.2603,0.2601,0.2602,0.2604,0.2623,0.2621,0.2627,0.2632,0.2642,0.2691,0.2702,0.2581,0.2581,0.2581,0,0,0.2697,0.2673,0.2653,0.2627,0.2623,0.2626,0.2616,0.2605,0.2618,0.2597,0.2608,0.261,0.2609,0.2625,0.2631,0.2616,0.268,0.2636,0.264,0.2647,0.2695,0.2707,0.2718,0.2583,0.2582,0.2582,0,0,0.2665,0.2645,0.2617,0.2624,0.2622,0.2624,0.2627,0.2618,0.2626,0.2634,0.2637,0.2655,0.2648,0.2664,0.2669,0.2705,0.2711,0.2706,0.2741,0.2788,0.2798,0.2808,0.286,0.2874,0.2706,0.2706,0.2706,0,0.2662,0.2626,0.2612,0.2607,0.2613,0.2629,0.2629,0.2643,0.264,0.2655,0.2646,0.2675,0.2672,0.271,0.273,0.2719,0.2748,0.2712,0.2796,0.2806,0.2814,0.2865,0.288,0.2708,0.2708,0.2708,0.2707,0,0.262,0.2613,0.2599,0.2603,0.2612,0.2611,0.2638,0.2657,0.267,0.2688,0.2726,0.2729,0.275,0.2758,0.2753,0.2819,0.2821,0.28,0.2778,0.283,0.288,0.2894,0.2712,0.2711,0.271,0.271,0,0,0.2548,0.2566,0.2563,0.2588,0.2611,0.2616,0.265,0.2686,0.2724,0.2739,0.2785,0.2807,0.282,0.2829,0.2833,0.2873,0.2965,0.2867,0.2869,0.2919,0.3084,0.3112,0.313,0.296,0.2962,0.2964,0.3098,0,0.2525,0.2525,0.2535,0.2564,0.2577,0.2619,0.2658,0.2702,0.2739,0.2795,0.2824,0.2868,0.2846,0.2867,0.2906,0.2956,0.3003,0.2931,0.3026,0.3029,0.3048,0.3147,0.3124,0.3243,0.3112,0.3114,0.3116,0,0.2474,0.249,0.2503,0.2571,0.258,0.2607,0.2681,0.2721,0.2809,0.2838,0.2888,0.2919,0.2992,0.2961,0.3071,0.3028,0.3065,0.3094,0.3099,0.312,0.3084,0.3169,0.3274,0.3239,0.3138,0.3136,0.3135,0,0.243,0.2468,0.2483,0.2501,0.2575,0.26,0.265,0.2731,0.2772,0.2879,0.2927,0.3001,0.3057,0.311,0.3176,0.3134,0.3303,0.3245,0.3303,0.3305,0.3302,0.33,0.3384,0.3326,0.3326,0.3326,0.3325,0,0.2391,0.2406,0.2471,0.2483,0.2522,0.259,0.2641,0.2707,0.2801,0.287,0.2953,0.3021,0.31,0.3197,0.3228,0.3336,0.3347,0.3345,0.3355,0.3318,0.3316,0.3295,0.3241,0.3331,0.333,0.3329,0.3328,0,0.2328,0.2367,0.2396,0.2474,0.2497,0.253,0.2615,0.2664,0.2775,0.287,0.291,0.306,0.321,0.3296,0.3413,0.3419,0.3437,0.3528,0.3488,0.3491,0.3484,0.3433,0.3358,0.3248,0.3614,0.3615,0.3617,0,0.2291,0.23,0.2367,0.2383,0.2414,0.247,0.2508,0.2621,0.2682,0.2888,0.294,0.313,0.3259,0.3472,0.3551,0.366,0.3516,0.3661,0.3567,0.3522,0.3471,0.3273,0.3168,0.3585,0.3586,0.3587,0.3587,0,0.2228,0.2253,0.2278,0.2314,0.2349,0.2385,0.2466,0.2504,0.2665,0.2781,0.2963,0.3095,0.3361,0.3497,0.3664,0.3704,0.3526,0.3681,0.3647,0.3485,0.3262,0.3147,0.3456,0.3595,0.3594,0.3594,0.3593,0.3593,0.2174,0.2175,0.2213,0.2235,0.2272,0.2306,0.2316,0.2429,0.2532,0.2707,0.2896,0.3099,0.3394,0.3651,0.3661,0.3732,0.3591,0.3676,0.363,0.3442,0.3294,0.3631,0.3764,0.3765,0.3765,0.3765,0.3765,0,0.2105,0.2116,0.2137,0.2159,0.216,0.2215,0.2284,0.2299,0.2397,0.2641,0.2808,0.3167,0.3385,0.358,0.3809,0.3729,0.3488,0.3636,0.3362,0.3266,0.3623,0.3584,0.3669,0.3669,0.3669,0.3669,0.3669,0.3669,0.2071,0.2057,0.2066,0.2038,0.2055,0.204,0.206,0.2117,0.2272,0.2505,0.2738,0.295,0.34,0.3765,0.3839,0.3739,0.3415,0.3304,0.319,0.3498,0.3497,0.3495,0.3449,0.3505,0.3504,0.2734,0.2729,0.2725]},{"header":{"parameterUnit":"m.s-1","parameterCategory":2,"la1":30.2991,"la2":30.254,"lo1":-89.0895,"lo2":-89.0444,"dy":0.0017,"dx":0.0017,"nx":28,"ny":28,"refTime":"2024-05-13T21:00:00:Z","depth":"0","parameterNumber":3,"parameterNumberName":"V-component_of_CURRENTS"},"data":[0,0,0,0,0,0,0,0,0,0,0,0,0,0,0,0,0,0,0,0,0,0,0,0,0,0,0,0,0,0,0,0,0,0,0,0,0,0,0,0,0,0,0,0,0,0,0,0,0,0,0,0,0,0,0,0,0,0,0.0029,0.0028,0,-0.0064,-0.0065,-0.0066,-0.0117,-0.0117,-0.0117,-0.0117,-0.0236,-0.0239,-0.0242,0,0,0,0,0,0,0,0,0,0,0,0,0,0.0112,0.0111,0.0029,0.0028,0.0027,-0.0064,-0.0065,-0.0066,-0.0117,-0.0117,-0.0117,-0.0117,-0.0235,-0.0239,-0.0243,0,0,0,0,0,0,0,0,0,0,0,0,0,0.0053,0.011,0.0029,-0.0009,-0.0013,-0.0063,-0.0065,-0.0067,-0.0117,-0.0117,-0.0117,-0.0117,-0.0234,-0.0239,-0.0243,-0.027,0,0,-0.0258,-0.026,0,0,0,0,0,0,0,0,0.0056,0.0049,-0.0002,-0.0006,-0.0011,-0.0078,-0.008,-0.0136,-0.0117,-0.0078,-0.0117,-0.0117,-0.0185,-0.0194,-0.0212,-0.0276,-0.0281,-0.0258,-0.0261,-0.0263,-0.0264,0,0,0,0,0,0,0,0.006,0.0053,-0.0009,-0.0003,-0.0009,-0.0039,-0.0047,-0.0091,-0.0131,-0.0082,-0.0085,-0.0094,-0.0188,-0.0207,-0.0215,-0.0283,-0.0258,-0.0262,-0.0265,-0.0267,-0.0354,-0.0353,0,0,0,0,0,0,0.0076,0.0057,-0.0006,-0.0011,0.0024,-0.004,-0.0049,-0.0057,-0.013,-0.0141,-0.0094,-0.0096,-0.0199,-0.021,-0.022,-0.0235,-0.0263,-0.0267,-0.027,-0.0354,-0.0354,-0.0353,0,0,0,0,0,0,0.0078,0.0071,-0.0002,0.0021,0.001,-0.0041,-0.005,-0.0059,-0.0076,-0.0139,-0.0151,-0.0101,-0.02,-0.0213,-0.0246,-0.024,-0.0269,-0.0274,-0.0355,-0.0354,-0.0353,-0.0278,0,0,0,0,0,0,0.0081,0.0073,0.0073,0.0022,0.0009,-0.0021,-0.005,-0.0061,-0.0081,-0.0085,-0.0149,-0.0161,-0.0201,-0.0238,-0.025,-0.0247,-0.0277,-0.0355,-0.0354,-0.0354,-0.0281,-0.0275,-0.027,0,0,0,0,0,0.0084,0.0087,0.0074,0.0066,0.0012,-0.0021,-0.003,-0.0067,-0.0081,-0.0084,-0.0122,-0.0159,-0.0241,-0.0242,-0.0256,-0.0254,-0.0356,-0.0355,-0.0354,-0.0284,-0.0276,-0.027,0,0,0,0,0,0,0.0126,0.008,0.0066,0.0055,0.0025,-0.0029,-0.0036,-0.0062,-0.0096,-0.0098,-0.0156,-0.017,-0.0196,-0.0234,-0.0233,-0.0275,-0.0304,-0.0305,-0.0246,-0.0239,-0.0233,-0.0211,-0.0281,0,0,0,0,0,0.0136,0.0125,0.008,0.0074,0.0061,0.0015,-0.0003,-0.0027,-0.0065,-0.0081,-0.0124,-0.0167,-0.0204,-0.0226,-0.0265,-0.0291,-0.0325,-0.0298,-0.0292,-0.0287,-0.0278,-0.0324,-0.0321,-0.0349,-0.0349,-0.0349,0,0,0.0151,0.0125,0.0119,0.0082,0.0055,0.0046,0.0004,-0.0017,-0.0022,-0.0089,-0.0106,-0.015,-0.0205,-0.023,-0.0246,-0.0261,-0.0295,-0.0286,-0.0281,-0.0274,-0.0323,-0.032,-0.0318,-0.0349,-0.0349,-0.0349,0,0,0.0179,0.0154,0.0156,0.0135,0.0101,0.0072,0.0071,0.0023,0.0005,-0.002,-0.0065,-0.01,-0.0159,-0.0196,-0.0222,-0.0209,-0.0261,-0.0222,-0.0178,-0.0223,-0.0221,-0.022,-0.0248,-0.025,-0.022,-0.022,-0.022,0,0.0203,0.0196,0.0153,0.0152,0.0144,0.009,0.0098,0.0069,0.002,0.0009,-0.0012,-0.0091,-0.0142,-0.0172,-0.0166,-0.0196,-0.0223,-0.02,-0.0215,-0.0214,-0.0214,-0.0244,-0.0247,-0.0216,-0.0217,-0.0217,-0.0217,0,0.0229,0.0228,0.0229,0.0212,0.0197,0.0194,0.0154,0.0141,0.0112,0.0078,0.0045,-0.0021,-0.0067,-0.009,-0.0127,-0.0149,-0.0168,-0.02,-0.023,-0.0207,-0.024,-0.0244,-0.0211,-0.0212,-0.0213,-0.0214,0,0,0.0272,0.0253,0.0255,0.0264,0.023,0.0224,0.022,0.0198,0.0201,0.0145,0.0143,0.0069,0.0029,-0.0003,-0.0057,-0.0097,-0.0124,-0.0141,-0.0145,-0.0163,-0.0209,-0.0212,-0.0218,-0.016,-0.0161,-0.0161,-0.0228,0,0.0309,0.0328,0.0305,0.0331,0.0339,0.0303,0.031,0.0283,0.0248,0.0231,0.0157,0.0129,0.0062,0.0045,-0.0007,-0.0093,-0.0134,-0.0102,-0.0234,-0.0237,-0.0239,-0.0223,-0.0192,-0.0248,-0.0233,-0.0234,-0.0234,0,0.0342,0.0351,0.0385,0.0399,0.0401,0.0412,0.0414,0.0409,0.0367,0.0339,0.0289,0.0229,0.0165,0.0106,-0.0028,-0.0004,-0.0096,-0.0167,-0.0172,-0.0203,-0.0249,-0.0272,-0.0258,-0.045,-0.0242,-0.0241,-0.0241,0,0.0393,0.0409,0.0442,0.0445,0.045,0.0469,0.0471,0.0445,0.0454,0.0406,0.0408,0.0309,0.0275,0.0145,0.0001,-0.0017,-0.0142,-0.0192,-0.028,-0.0282,-0.0295,-0.0296,-0.0477,-0.0286,-0.0286,-0.0286,-0.0286,0,0.0439,0.0466,0.0474,0.0494,0.0546,0.0527,0.0573,0.0557,0.0549,0.0576,0.047,0.0475,0.0283,0.0189,0.0038,-0.0121,-0.0119,-0.0264,-0.0299,-0.0267,-0.0265,-0.0466,-0.0577,-0.0288,-0.0288,-0.0287,-0.0287,0,0.0487,0.049,0.0533,0.0558,0.0574,0.0609,0.0649,0.0675,0.0659,0.0693,0.0689,0.0598,0.0479,0.0291,0.0089,-0.0058,-0.033,-0.0279,-0.0217,-0.0244,-0.0514,-0.0621,-0.0841,-0.0941,-0.0395,-0.0395,-0.0396,0,0.0512,0.0541,0.0587,0.062,0.0636,0.0686,0.0725,0.0729,0.0762,0.0781,0.0809,0.0717,0.0679,0.0385,0.0106,-0.0151,-0.0343,-0.0303,-0.0342,-0.0518,-0.0665,-0.0753,-0.0828,-0.0331,-0.0331,-0.0331,-0.0331,0,0.0562,0.058,0.0614,0.0686,0.0736,0.0797,0.0857,0.0908,0.093,0.0977,0.1028,0.1009,0.074,0.0494,0.0135,-0.0053,-0.0444,-0.0309,-0.0517,-0.0646,-0.073,-0.0844,-0.0293,-0.0329,-0.0329,-0.033,-0.033,-0.033,0.06,0.0635,0.0684,0.0753,0.0816,0.0906,0.0975,0.1052,0.1149,0.125,0.1217,0.1259,0.0881,0.0397,0.0085,-0.0436,-0.0468,-0.0589,-0.0708,-0.0783,-0.0877,-0.0311,-0.0373,-0.0373,-0.0374,-0.0374,-0.0374,0,0.0642,0.0682,0.0747,0.0832,0.091,0.0939,0.1061,0.1148,0.129,0.1414,0.1482,0.139,0.0897,0.0395,-0.0317,-0.0738,-0.0914,-0.0974,-0.1107,-0.1168,-0.0681,-0.0675,-0.0773,-0.0773,-0.0773,-0.0773,-0.0772,-0.0772,0.0666,0.073,0.0762,0.0896,0.0964,0.1087,0.1169,0.1314,0.1444,0.1635,0.1731,0.176,0.1444,0.005,-0.0912,-0.115,-0.1461,-0.153,-0.1715,-0.1392,-0.1366,-0.134,-0.1363,-0.1603,-0.1604,-0.2139,-0.2144,-0.2148]}],[{"header":{"parameterUnit":"m.s-1","parameterCategory":2,"la1":30.2991,"la2":30.254,"lo1":-89.0895,"lo2":-89.0444,"dy":0.0017,"dx":0.0017,"nx":28,"ny":28,"refTime":"2024-05-13T21:00:00:Z","depth":"2","parameterNumber":2,"parameterNumberName":"U-component_of_CURRENTS"},"data":[0,0,0,0,0,0,0,0,0,0,0,0,0,0,0,0,0,0,0,0,0,0,0,0,0,0,0,0,0,0,0,0,0,0,0,0,0,0,0,0,0,0,0,0,0,0,0,0,0,0,0,0,0,0,0,0,0,0,0.2304,0.2304,0,0.2319,0.2319,0.2319,0.2325,0.2326,0.2326,0.2326,0.2324,0.2324,0.2324,0,0,0,0,0,0,0,0,0,0,0,0,0,0.2278,0.2279,0.2304,0.2304,0.2305,0.2319,0.2319,0.2319,0.2325,0.2326,0.2326,0.2326,0.2324,0.2324,0.2324,0,0,0,0,0,0,0,0,0,0,0,0,0,0.2289,0.2279,0.2304,0.2312,0.2313,0.2319,0.2319,0.2319,0.2325,0.2326,0.2326,0.2326,0.2325,0.2324,0.2324,0.2315,0,0,0.2323,0.2323,0,0,0,0,0,0,0,0,0.2288,0.2289,0.231,0.2311,0.2312,0.2323,0.231,0.2318,0.2325,0.2318,0.2326,0.2326,0.2324,0.2324,0.2322,0.2315,0.2315,0.2323,0.2322,0.2322,0.2322,0,0,0,0,0,0,0,0.2287,0.2289,0.2307,0.2311,0.2312,0.2314,0.2316,0.2311,0.2316,0.2318,0.232,0.2325,0.2324,0.2322,0.2322,0.2315,0.2323,0.2322,0.2322,0.2322,0.2363,0.2364,0,0,0,0,0,0,0.2291,0.2288,0.2307,0.2308,0.2304,0.2314,0.2316,0.2317,0.2317,0.2318,0.2325,0.2326,0.2323,0.2323,0.2322,0.2362,0.2322,0.2322,0.2322,0.2361,0.2363,0.2364,0,0,0,0,0,0,0.229,0.2292,0.2306,0.2301,0.2303,0.2315,0.2316,0.2317,0.2328,0.2323,0.2323,0.2336,0.2323,0.2323,0.2336,0.2361,0.2322,0.2321,0.236,0.2362,0.2364,0.2411,0,0,0,0,0,0,0.2289,0.2291,0.2296,0.2301,0.2304,0.2321,0.2316,0.2318,0.2332,0.2333,0.2332,0.2331,0.2323,0.2337,0.2336,0.2359,0.2321,0.2358,0.2361,0.2363,0.2407,0.2414,0.242,0,0,0,0,0,0.2288,0.2288,0.2295,0.2298,0.2308,0.2322,0.2323,0.2331,0.2332,0.234,0.2344,0.2332,0.2352,0.2337,0.2336,0.236,0.2357,0.236,0.2363,0.2405,0.2413,0.2419,0,0,0,0,0,0,0.2275,0.229,0.2297,0.2302,0.2318,0.2324,0.2332,0.2337,0.2346,0.2349,0.2342,0.2342,0.2366,0.2356,0.234,0.2381,0.2355,0.2358,0.2387,0.2395,0.2401,0.2409,0.2321,0,0,0,0,0,0.2276,0.2283,0.23,0.2305,0.2315,0.2326,0.2334,0.2341,0.2349,0.2353,0.2355,0.2361,0.2375,0.2379,0.2384,0.2399,0.2411,0.2417,0.2423,0.2428,0.2436,0.2475,0.2486,0.2374,0.2374,0.2374,0,0,0.2271,0.2283,0.2286,0.2304,0.2316,0.2335,0.2331,0.2348,0.2366,0.2351,0.2375,0.2381,0.2384,0.2408,0.2418,0.2403,0.2469,0.2432,0.2436,0.2441,0.2479,0.249,0.25,0.2376,0.2376,0.2375,0,0,0.2267,0.2279,0.2287,0.2305,0.2331,0.2343,0.2353,0.2369,0.2382,0.2403,0.2406,0.2429,0.2436,0.2452,0.2458,0.25,0.2501,0.2504,0.2538,0.2577,0.2587,0.2595,0.2636,0.2648,0.2505,0.2505,0.2505,0,0.2262,0.2275,0.2291,0.231,0.2325,0.2351,0.2366,0.2387,0.2407,0.2423,0.2418,0.2458,0.246,0.25,0.252,0.2514,0.2537,0.2509,0.2585,0.2594,0.2602,0.2641,0.2654,0.2508,0.2508,0.2507,0.2507,0,0.2266,0.2283,0.2292,0.2325,0.2345,0.2363,0.2397,0.2423,0.2441,0.2463,0.2506,0.2515,0.254,0.255,0.2548,0.2609,0.2609,0.2589,0.2566,0.2616,0.2655,0.2667,0.2512,0.2511,0.251,0.2509,0,0,0.2229,0.2282,0.2286,0.231,0.2354,0.2372,0.2413,0.2455,0.2493,0.2519,0.2565,0.2594,0.2608,0.2618,0.2624,0.2659,0.2739,0.2654,0.2655,0.2693,0.2837,0.2836,0.2849,0.2736,0.2738,0.274,0.2846,0,0.2226,0.2261,0.2287,0.2328,0.2351,0.2391,0.2432,0.2479,0.2518,0.2574,0.2603,0.265,0.2633,0.2657,0.269,0.2732,0.2772,0.2713,0.2784,0.2786,0.2778,0.2863,0.2658,0.2735,0.2858,0.286,0.2861,0,0.2214,0.2244,0.2275,0.2342,0.2356,0.2387,0.2458,0.2501,0.2586,0.2616,0.2666,0.2698,0.2766,0.2739,0.2831,0.2798,0.2825,0.2848,0.2852,0.2843,0.2808,0.2703,0.2752,0.2881,0.2879,0.2878,0.2876,0,0.2176,0.2235,0.226,0.228,0.2358,0.2384,0.2434,0.2513,0.2553,0.2656,0.2701,0.2771,0.2823,0.2866,0.292,0.2886,0.3024,0.2974,0.2997,0.2997,0.2832,0.2815,0.304,0.304,0.304,0.3039,0.3039,0,0.2155,0.2178,0.225,0.2266,0.2308,0.2377,0.2429,0.2491,0.2582,0.2646,0.2727,0.2787,0.286,0.2941,0.2964,0.3038,0.306,0.3032,0.3035,0.2845,0.2828,0.295,0.2938,0.3043,0.3042,0.3042,0.3041,0,0.2101,0.2147,0.2182,0.2263,0.2287,0.2322,0.2407,0.2453,0.2559,0.2647,0.2686,0.2821,0.2944,0.3017,0.3112,0.3103,0.3163,0.3175,0.2958,0.2935,0.3096,0.3085,0.3212,0.3213,0.3214,0.3215,0.3216,0,0.2073,0.2087,0.2158,0.2176,0.2209,0.2268,0.2306,0.2415,0.2471,0.2658,0.2703,0.2866,0.2963,0.3126,0.3162,0.3233,0.323,0.3056,0.2949,0.3128,0.3119,0.3106,0.3095,0.2748,0.2745,0.2742,0.274,0,0.202,0.2046,0.2074,0.2113,0.2149,0.2185,0.2263,0.2295,0.2446,0.2543,0.2693,0.2796,0.2992,0.2993,0.3106,0.3099,0.303,0.3007,0.3259,0.2745,0.2702,0.2689,0.269,0.2716,0.2719,0.272,0.2722,0.2723,0.1971,0.1974,0.2015,0.2039,0.2076,0.2104,0.211,0.2206,0.2288,0.2421,0.2587,0.269,0.2791,0.2876,0.2834,0.2812,0.2999,0.2852,0.2855,0.2862,0.2798,0.276,0.2774,0.2776,0.2778,0.278,0.2782,0,0.1905,0.192,0.1942,0.1965,0.1962,0.2019,0.2074,0.2071,0.2133,0.2305,0.2423,0.2346,0.2411,0.2496,0.2456,0.2497,0.241,0.2378,0.2232,0.2262,0.2287,0.2186,0.2003,0.2,0.1997,0.1994,0,0,0.1873,0.1862,0.1871,0.184,0.1858,0.1835,0.1845,0.1867,0.1962,0.201,0.2075,0.2311,0.2464,0.2192,0.2196,0.2089,0.2137,0.2014,0.2657,0.2519,0.2538,0.2605,0.2492,0,0,0,0,0]},{"header":{"parameterUnit":"m.s-1","parameterCategory":2,"la1":30.2991,"la2":30.254,"lo1":-89.0895,"lo2":-89.0444,"dy":0.0017,"dx":0.0017,"nx":28,"ny":28,"refTime":"2024-05-13T21:00:00:Z","depth":"2","parameterNumber":3,"parameterNumberName":"V-component_of_CURRENTS"},"data":[0,0,0,0,0,0,0,0,0,0,0,0,0,0,0,0,0,0,0,0,0,0,0,0,0,0,0,0,0,0,0,0,0,0,0,0,0,0,0,0,0,0,0,0,0,0,0,0,0,0,0,0,0,0,0,0,0,0,-0.0052,-0.0053,0,-0.0138,-0.0139,-0.014,-0.0184,-0.0184,-0.0184,-0.0184,-0.0296,-0.0299,-0.0302,0,0,0,0,0,0,0,0,0,0,0,0,0,0.0029,0.0028,-0.0052,-0.0053,-0.0054,-0.0138,-0.0139,-0.0141,-0.0184,-0.0184,-0.0184,-0.0184,-0.0295,-0.0299,-0.0302,0,0,0,0,0,0,0,0,0,0,0,0,0,-0.0027,0.0028,-0.0052,-0.0085,-0.0089,-0.0138,-0.0139,-0.0141,-0.0184,-0.0184,-0.0184,-0.0184,-0.0294,-0.0298,-0.0303,-0.0332,0,0,-0.0317,-0.0319,0,0,0,0,0,0,0,0,-0.0023,-0.003,-0.0079,-0.0083,-0.0088,-0.015,-0.0152,-0.0206,-0.0184,-0.0148,-0.0184,-0.0184,-0.0249,-0.0258,-0.0274,-0.0337,-0.0342,-0.0317,-0.032,-0.0322,-0.0323,0,0,0,0,0,0,0,-0.0019,-0.0026,-0.0087,-0.0081,-0.0085,-0.0112,-0.0119,-0.0162,-0.0199,-0.0151,-0.0155,-0.0163,-0.0252,-0.027,-0.0277,-0.0343,-0.0317,-0.0321,-0.0324,-0.0326,-0.0416,-0.0416,0,0,0,0,0,0,-0.0005,-0.0023,-0.0084,-0.0089,-0.0054,-0.0113,-0.0122,-0.013,-0.0198,-0.0208,-0.0163,-0.0165,-0.0262,-0.0272,-0.0281,-0.03,-0.0322,-0.0326,-0.0329,-0.0417,-0.0416,-0.0416,0,0,0,0,0,0,-0.0003,-0.001,-0.008,-0.0057,-0.0068,-0.0114,-0.0124,-0.0132,-0.0148,-0.0207,-0.0217,-0.017,-0.0262,-0.0275,-0.0308,-0.0305,-0.0328,-0.0332,-0.0417,-0.0417,-0.0416,-0.0349,0,0,0,0,0,0,-0.0001,-0.0009,-0.001,-0.0056,-0.0069,-0.0101,-0.0124,-0.0134,-0.0153,-0.0156,-0.0216,-0.0227,-0.0263,-0.0301,-0.0313,-0.0312,-0.0336,-0.0417,-0.0417,-0.0416,-0.0352,-0.0347,-0.0342,0,0,0,0,0,0.0003,0.0002,-0.0009,-0.0017,-0.0069,-0.0101,-0.0109,-0.0143,-0.0153,-0.0157,-0.0193,-0.0225,-0.0306,-0.0305,-0.0318,-0.0319,-0.0418,-0.0417,-0.0416,-0.0354,-0.0348,-0.0342,0,0,0,0,0,0,0.0036,-0.0004,-0.0017,-0.003,-0.0058,-0.0108,-0.0116,-0.0138,-0.017,-0.0172,-0.0225,-0.0238,-0.0265,-0.03,-0.0298,-0.0342,-0.0366,-0.0368,-0.0314,-0.0309,-0.0304,-0.0283,-0.0339,0,0,0,0,0,0.0044,0.0033,-0.0008,-0.0017,-0.0028,-0.007,-0.0087,-0.0109,-0.0144,-0.0158,-0.0198,-0.0239,-0.0275,-0.0296,-0.0334,-0.0362,-0.0392,-0.037,-0.0365,-0.036,-0.0352,-0.0393,-0.0391,-0.0414,-0.0414,-0.0414,0,0,0.0054,0.0031,0.0025,-0.001,-0.0035,-0.0045,-0.008,-0.0101,-0.0107,-0.0166,-0.0185,-0.0226,-0.0278,-0.0304,-0.032,-0.0332,-0.0369,-0.0359,-0.0355,-0.0349,-0.0393,-0.039,-0.0388,-0.0413,-0.0413,-0.0414,0,0,0.0073,0.0051,0.0051,0.0032,0.0001,-0.0025,-0.0026,-0.007,-0.0086,-0.0112,-0.0152,-0.0185,-0.0243,-0.0276,-0.0301,-0.0294,-0.034,-0.0307,-0.0269,-0.0309,-0.0307,-0.0306,-0.0334,-0.0336,-0.0306,-0.0305,-0.0305,0,0.009,0.0083,0.0047,0.0045,0.0037,-0.001,-0.0005,-0.0031,-0.0078,-0.0088,-0.0106,-0.0181,-0.0228,-0.0258,-0.0254,-0.0283,-0.0308,-0.0286,-0.0302,-0.0301,-0.0302,-0.0331,-0.0334,-0.0302,-0.0303,-0.0303,-0.0303,0,0.0109,0.0107,0.0107,0.0092,0.0078,0.0073,0.0038,0.0026,0.0,-0.003,-0.0062,-0.0123,-0.0166,-0.0188,-0.0221,-0.0243,-0.0261,-0.0289,-0.0313,-0.0295,-0.0327,-0.0331,-0.0297,-0.0299,-0.03,-0.03,0,0,0.0138,0.0125,0.0126,0.0135,0.0105,0.0099,0.0094,0.0073,0.0077,0.0024,0.0022,-0.0047,-0.0083,-0.0112,-0.0161,-0.0198,-0.0224,-0.0237,-0.0241,-0.0258,-0.0303,-0.0308,-0.0314,-0.0255,-0.0255,-0.0256,-0.0322,0,0.0167,0.0184,0.0166,0.0187,0.0195,0.0164,0.0169,0.0145,0.0114,0.0099,0.0033,0.0007,-0.0054,-0.0069,-0.0116,-0.0195,-0.0233,-0.0203,-0.0323,-0.0327,-0.0329,-0.0319,-0.0287,-0.0343,-0.0327,-0.0327,-0.0328,0,0.0194,0.0203,0.0232,0.0247,0.0249,0.0258,0.0262,0.0257,0.0219,0.0196,0.015,0.0097,0.0037,-0.0014,-0.0139,-0.0115,-0.02,-0.0265,-0.027,-0.03,-0.0341,-0.0361,-0.0352,-0.0336,-0.0335,-0.0335,-0.0334,0,0.0238,0.0251,0.0281,0.0284,0.029,0.0308,0.0311,0.0289,0.0299,0.0256,0.0258,0.0168,0.0137,0.0019,-0.0115,-0.0129,-0.0247,-0.0289,-0.0374,-0.0375,-0.0384,-0.0385,-0.0377,-0.0377,-0.0376,-0.0376,-0.0376,0,0.0276,0.03,0.0309,0.0328,0.0377,0.036,0.0403,0.0391,0.0385,0.0411,0.0313,0.0318,0.0145,0.0056,-0.0083,-0.0231,-0.0228,-0.0361,-0.0392,-0.0359,-0.0357,-0.0383,-0.0383,-0.0379,-0.0378,-0.0378,-0.0377,0,0.0318,0.0321,0.0361,0.0385,0.0401,0.0435,0.0474,0.0499,0.0485,0.0518,0.0515,0.043,0.0317,0.0144,-0.0042,-0.0175,-0.0326,-0.0382,-0.0323,-0.0346,-0.0438,-0.0433,-0.0489,-0.0489,-0.049,-0.049,-0.0491,0,0.034,0.0366,0.0411,0.0443,0.046,0.0506,0.0544,0.0549,0.0582,0.0597,0.0624,0.0534,0.0489,0.0214,-0.0038,-0.0276,-0.0314,-0.0407,-0.0438,-0.0423,-0.0449,-0.0444,-0.0439,-0.0424,-0.0424,-0.0424,-0.0424,0,0.0385,0.0403,0.0436,0.0505,0.0554,0.0612,0.0669,0.0716,0.0737,0.0776,0.0814,0.0786,0.0533,0.0301,-0.0029,-0.0196,-0.0369,-0.0413,-0.0417,-0.0396,-0.0367,-0.0391,-0.0387,-0.0423,-0.0423,-0.0423,-0.0423,-0.0423,0.0422,0.0454,0.0502,0.0569,0.063,0.0714,0.0776,0.0843,0.0926,0.1,0.0964,0.0944,0.0668,0.0262,-0.0042,-0.0363,-0.0359,-0.0466,-0.0465,-0.0464,-0.044,-0.0413,-0.0473,-0.0473,-0.0474,-0.0474,-0.0474,0,0.0461,0.0499,0.0561,0.0642,0.0716,0.0745,0.0857,0.0926,0.1041,0.1115,0.1151,0.0929,0.0659,0.034,-0.0131,-0.0419,-0.045,-0.0506,-0.0477,-0.0475,-0.0474,-0.045,-0.0487,-0.0488,-0.0488,-0.0489,0,0,0.0484,0.0544,0.0573,0.0698,0.0763,0.0875,0.0948,0.106,0.1144,0.1225,0.1235,0.1185,0.0797,0.0463,0.0062,-0.021,-0.0278,-0.0267,-0.0225,-0.0141,-0.0137,-0.0418,-0.0374,0,0,0,0,0]}],[{"header":{"parameterUnit":"m.s-1","parameterCategory":2,"la1":30.2991,"la2":30.254,"lo1":-89.0895,"lo2":-89.0444,"dy":0.0017,"dx":0.0017,"nx":28,"ny":28,"refTime":"2024-05-13T21:00:00:Z","depth":"4","parameterNumber":2,"parameterNumberName":"U-component_of_CURRENTS"},"data":[0,0,0,0,0,0,0,0,0,0,0,0,0,0,0,0,0,0,0,0,0,0,0,0,0,0,0,0,0,0,0,0,0,0,0,0,0,0,0,0,0,0,0,0,0,0,0,0,0,0,0,0,0,0,0,0,0,0,0.1554,0.1555,0,0.1629,0.1629,0.163,0.1685,0.1686,0.1687,0.1688,0.1755,0.1756,0.1757,0,0,0,0,0,0,0,0,0,0,0,0,0,0.1403,0.1405,0.1554,0.1555,0.1557,0.1629,0.1629,0.163,0.1685,0.1686,0.1687,0.1688,0.1754,0.1755,0.1757,0,0,0,0,0,0,0,0,0,0,0,0,0,0.1469,0.1406,0.1554,0.1595,0.16,0.1629,0.1629,0.163,0.1685,0.1686,0.1687,0.1688,0.1754,0.1755,0.1757,0.1743,0,0,0.1762,0.1762,0,0,0,0,0,0,0,0,0.1465,0.1474,0.1588,0.1592,0.1598,0.1652,0.1601,0.1669,0.1685,0.1649,0.1688,0.1689,0.1721,0.1725,0.1732,0.1746,0.1749,0.1762,0.1763,0.1763,0.1764,0,0,0,0,0,0,0,0.1461,0.1471,0.158,0.1589,0.1595,0.1591,0.1602,0.1613,0.1675,0.1652,0.1657,0.167,0.1723,0.173,0.1734,0.175,0.1762,0.1763,0.1764,0.1765,0.1866,0.1867,0,0,0,0,0,0,0.146,0.1467,0.1578,0.1583,0.1537,0.1593,0.1605,0.1631,0.1675,0.1684,0.1669,0.1673,0.1727,0.1732,0.1737,0.1822,0.1763,0.1765,0.1766,0.1864,0.1866,0.1868,0,0,0,0,0,0,0.1457,0.147,0.1575,0.1528,0.1542,0.1595,0.1623,0.1632,0.1675,0.1689,0.1697,0.1709,0.1728,0.1734,0.1784,0.1821,0.1766,0.1767,0.1862,0.1865,0.1867,0.1929,0,0,0,0,0,0,0.1452,0.1468,0.1501,0.1529,0.1545,0.1616,0.1622,0.1632,0.1681,0.1687,0.1724,0.173,0.173,0.1782,0.1786,0.1822,0.1768,0.186,0.1863,0.1866,0.1925,0.1933,0.1941,0,0,0,0,0,0.1447,0.1482,0.1502,0.1516,0.1584,0.1618,0.1626,0.1663,0.1682,0.1706,0.1737,0.173,0.1805,0.1785,0.1789,0.1827,0.1858,0.1862,0.1866,0.1921,0.1932,0.194,0,0,0,0,0,0,0.1432,0.1492,0.1515,0.1568,0.1602,0.1629,0.1663,0.1682,0.1724,0.1742,0.175,0.1758,0.1815,0.1812,0.1789,0.1866,0.1831,0.1836,0.1872,0.1882,0.189,0.1889,0.177,0,0,0,0,0,0.1444,0.1495,0.1534,0.1582,0.1602,0.1637,0.1663,0.1687,0.1721,0.1743,0.177,0.18,0.1827,0.1849,0.187,0.1909,0.1909,0.1937,0.1945,0.1952,0.1955,0.1986,0.1997,0.1881,0.1881,0.1881,0,0,0.1454,0.1494,0.1524,0.1583,0.1616,0.1649,0.1657,0.1706,0.1741,0.1742,0.1809,0.183,0.1844,0.1894,0.1919,0.1901,0.1989,0.1957,0.1963,0.1962,0.1991,0.2002,0.2012,0.1883,0.1883,0.1882,0,0,0.1478,0.1533,0.1574,0.1606,0.1663,0.1683,0.1704,0.1751,0.1784,0.1839,0.1853,0.1898,0.1941,0.196,0.1972,0.2035,0.2029,0.2049,0.2091,0.2122,0.2131,0.2139,0.2165,0.2175,0.2054,0.2054,0.2054,0,0.1488,0.1544,0.1589,0.1627,0.1658,0.1702,0.1736,0.1773,0.1832,0.1861,0.1873,0.1952,0.1969,0.2021,0.2051,0.2053,0.207,0.2052,0.2131,0.2139,0.2147,0.2171,0.2181,0.2058,0.2057,0.2057,0.2057,0,0.1526,0.158,0.1607,0.1673,0.1709,0.1751,0.1799,0.1847,0.1892,0.1925,0.2,0.2027,0.2072,0.2091,0.2094,0.2161,0.2156,0.2136,0.2104,0.2162,0.2184,0.2194,0.2063,0.2061,0.206,0.206,0,0,0.1521,0.1615,0.1629,0.1664,0.1738,0.1768,0.1833,0.1894,0.1945,0.2007,0.2067,0.2125,0.215,0.2165,0.218,0.2213,0.2288,0.2209,0.2209,0.223,0.2364,0.2242,0.2241,0.2288,0.229,0.2291,0.2362,0,0.1538,0.1609,0.1653,0.1724,0.1761,0.1817,0.1872,0.1937,0.1996,0.2068,0.2112,0.2179,0.2175,0.2213,0.2247,0.2282,0.2315,0.2271,0.2308,0.2309,0.219,0.2248,0.2297,0.2369,0.2371,0.2372,0.2373,0,0.1551,0.1601,0.1666,0.1752,0.1775,0.1826,0.1919,0.1977,0.2075,0.2122,0.2189,0.2229,0.2305,0.2287,0.2368,0.2346,0.2365,0.238,0.2382,0.225,0.2205,0.2296,0.239,0.2389,0.2388,0.2387,0.2386,0,0.1511,0.1607,0.1661,0.1691,0.1792,0.184,0.1905,0.2001,0.205,0.2169,0.2219,0.2299,0.2357,0.2394,0.2438,0.2417,0.2516,0.248,0.2384,0.2376,0.2435,0.2425,0.2528,0.2528,0.2528,0.2528,0.2528,0,0.1493,0.1542,0.1656,0.1686,0.1755,0.184,0.1919,0.1992,0.2094,0.2155,0.2253,0.2299,0.2391,0.2453,0.247,0.2462,0.2542,0.24,0.2387,0.2461,0.2454,0.2442,0.2432,0.253,0.253,0.2529,0.2529,0,0.1433,0.151,0.1577,0.1697,0.1737,0.1793,0.1912,0.1962,0.208,0.2163,0.2206,0.2326,0.2411,0.2482,0.2556,0.2491,0.2502,0.2477,0.2573,0.2563,0.2332,0.2324,0.2363,0.2359,0.2356,0.2353,0.2351,0,0.1405,0.1437,0.1567,0.1606,0.1666,0.1758,0.1811,0.1937,0.1986,0.2153,0.2179,0.2313,0.2381,0.2385,0.247,0.2499,0.247,0.2453,0.2367,0.2333,0.2317,0.2313,0.2309,0.2346,0.2346,0.2345,0.2344,0,0.1344,0.1406,0.146,0.1542,0.161,0.1667,0.1762,0.1775,0.1922,0.2045,0.2101,0.2151,0.2246,0.23,0.2352,0.2361,0.2449,0.242,0.2425,0.2344,0.2313,0.2299,0.2299,0.2333,0.2335,0.2336,0.2336,0,0.13,0.132,0.1402,0.1458,0.1534,0.1558,0.1616,0.1679,0.1738,0.1922,0.1936,0.2088,0.2218,0.223,0.2273,0.2285,0.2242,0.2153,0.2171,0.2184,0.2094,0.2027,0.1955,0,0,0,0,0,0.1245,0.1259,0.131,0.1361,0.1428,0.1475,0.1573,0.1634,0.1769,0.1762,0.1842,0.1923,0.1993,0.2067,0.2045,0.2203,0.2255,0.2167,0.2161,0.2273,0.2286,0.2198,0,0,0,0,0,0,0.121,0.1257,0.1274,0.1265,0.1281,0.1342,0.1398,0.1493,0.1494,0.1643,0.169,0.1812,0.1909,0.1991,0.201,0.2036,0.1994,0.2265,0.2261,0.2266,0.2277,0.2288,0.2201,0,0,0,0,0]},{"header":{"parameterUnit":"m.s-1","parameterCategory":2,"la1":30.2991,"la2":30.254,"lo1":-89.0895,"lo2":-89.0444,"dy":0.0017,"dx":0.0017,"nx":28,"ny":28,"refTime":"2024-05-13T21:00:00:Z","depth":"4","parameterNumber":3,"parameterNumberName":"V-component_of_CURRENTS"},"data":[0,0,0,0,0,0,0,0,0,0,0,0,0,0,0,0,0,0,0,0,0,0,0,0,0,0,0,0,0,0,0,0,0,0,0,0,0,0,0,0,0,0,0,0,0,0,0,0,0,0,0,0,0,0,0,0,0,0,0.0005,0.0004,0,-0.0062,-0.0063,-0.0064,-0.0096,-0.0096,-0.0096,-0.0096,-0.0191,-0.0193,-0.0196,0,0,0,0,0,0,0,0,0,0,0,0,0,0.0082,0.0081,0.0005,0.0004,0.0003,-0.0062,-0.0063,-0.0064,-0.0096,-0.0096,-0.0096,-0.0096,-0.019,-0.0193,-0.0196,0,0,0,0,0,0,0,0,0,0,0,0,0,0.0035,0.0081,0.0005,-0.002,-0.0023,-0.0062,-0.0063,-0.0064,-0.0096,-0.0096,-0.0096,-0.0096,-0.0189,-0.0193,-0.0196,-0.0222,0,0,-0.0208,-0.021,0,0,0,0,0,0,0,0,0.0038,0.0032,-0.0016,-0.0018,-0.0022,-0.0071,-0.0071,-0.0118,-0.0096,-0.0068,-0.0096,-0.0096,-0.0153,-0.016,-0.0172,-0.0226,-0.023,-0.0209,-0.0211,-0.0213,-0.0214,0,0,0,0,0,0,0,0.0041,0.0035,-0.0022,-0.0016,-0.002,-0.0037,-0.0043,-0.008,-0.0111,-0.0071,-0.0073,-0.0081,-0.0155,-0.0169,-0.0175,-0.0232,-0.0208,-0.0212,-0.0214,-0.0216,-0.0304,-0.0304,0,0,0,0,0,0,0.005,0.0038,-0.0019,-0.0024,0.0009,-0.0038,-0.0045,-0.0055,-0.011,-0.0118,-0.0081,-0.0082,-0.0162,-0.017,-0.0178,-0.0202,-0.0213,-0.0216,-0.0218,-0.0304,-0.0304,-0.0305,0,0,0,0,0,0,0.0052,0.0046,-0.0017,0.0006,-0.0003,-0.0039,-0.005,-0.0056,-0.0071,-0.0117,-0.0126,-0.0088,-0.0162,-0.0173,-0.0206,-0.0206,-0.0218,-0.0221,-0.0304,-0.0304,-0.0304,-0.0255,0,0,0,0,0,0,0.0055,0.0047,0.0043,0.0006,-0.0004,-0.0036,-0.005,-0.0058,-0.0075,-0.0078,-0.0127,-0.0135,-0.0163,-0.0199,-0.0209,-0.0212,-0.0224,-0.0304,-0.0304,-0.0304,-0.0256,-0.0253,-0.025,0,0,0,0,0,0.0058,0.0051,0.0044,0.0037,-0.0008,-0.0036,-0.0043,-0.0068,-0.0076,-0.0081,-0.011,-0.0134,-0.0207,-0.0203,-0.0214,-0.0218,-0.0304,-0.0304,-0.0304,-0.0258,-0.0254,-0.025,0,0,0,0,0,0,0.0081,0.0047,0.0037,0.002,-0.0003,-0.0041,-0.005,-0.0067,-0.0095,-0.0097,-0.0137,-0.0148,-0.0176,-0.0205,-0.0199,-0.0243,-0.0259,-0.0261,-0.0219,-0.0216,-0.0213,-0.0193,-0.0228,0,0,0,0,0,0.0085,0.0073,0.004,0.0027,0.0017,-0.0015,-0.003,-0.0046,-0.0076,-0.0088,-0.0121,-0.0156,-0.0187,-0.0206,-0.0238,-0.0266,-0.0288,-0.0275,-0.0272,-0.0269,-0.0261,-0.0295,-0.0294,-0.0305,-0.0305,-0.0305,0,0,0.0091,0.0071,0.0063,0.0032,0.0012,0.0002,-0.0024,-0.0043,-0.005,-0.0095,-0.0115,-0.0149,-0.0191,-0.0217,-0.0233,-0.0241,-0.0278,-0.0269,-0.0266,-0.026,-0.0295,-0.0294,-0.0293,-0.0305,-0.0305,-0.0305,0,0,0.0099,0.0079,0.0074,0.0059,0.0031,0.0012,0.0009,-0.0027,-0.004,-0.0064,-0.0095,-0.0125,-0.0176,-0.0203,-0.0223,-0.0225,-0.026,-0.0239,-0.021,-0.0243,-0.0242,-0.0242,-0.0264,-0.0266,-0.0238,-0.0238,-0.0238,0,0.0108,0.0098,0.0069,0.0064,0.0057,0.0021,0.0022,0.0001,-0.004,-0.0048,-0.0063,-0.0127,-0.0167,-0.0193,-0.0193,-0.0218,-0.0238,-0.0218,-0.0238,-0.0238,-0.0238,-0.0262,-0.0265,-0.0235,-0.0236,-0.0236,-0.0236,0,0.0113,0.0109,0.0106,0.0091,0.008,0.0072,0.0046,0.0034,0.0015,-0.0009,-0.0039,-0.0089,-0.0125,-0.0145,-0.0171,-0.0193,-0.0207,-0.0229,-0.0243,-0.0234,-0.026,-0.0263,-0.0232,-0.0233,-0.0233,-0.0234,0,0,0.0125,0.0113,0.0114,0.0122,0.0097,0.0091,0.0085,0.0068,0.0071,0.0026,0.0024,-0.0036,-0.0063,-0.0088,-0.0128,-0.0159,-0.0183,-0.019,-0.0193,-0.0204,-0.0248,-0.0245,-0.0249,-0.0209,-0.0209,-0.0209,-0.0263,0,0.0141,0.0149,0.0136,0.0151,0.0155,0.0134,0.0139,0.012,0.0095,0.0083,0.003,0.0008,-0.0042,-0.0054,-0.0095,-0.0159,-0.0191,-0.0166,-0.0262,-0.0264,-0.0257,-0.0253,-0.0211,-0.0266,-0.0267,-0.0267,-0.0268,0,0.0152,0.0158,0.0178,0.0195,0.0197,0.0205,0.0212,0.0206,0.0177,0.016,0.0122,0.0079,0.0029,-0.0012,-0.0116,-0.0097,-0.0166,-0.0218,-0.0222,-0.0238,-0.0268,-0.028,-0.0275,-0.0275,-0.0274,-0.0274,-0.0273,0,0.0181,0.0191,0.0214,0.0217,0.0226,0.0243,0.0247,0.0232,0.0241,0.0208,0.0211,0.0136,0.0112,0.0014,-0.0099,-0.0108,-0.0209,-0.0239,-0.0301,-0.0302,-0.031,-0.0311,-0.0311,-0.0311,-0.0311,-0.0311,-0.0311,0,0.0202,0.0221,0.0235,0.025,0.0293,0.0282,0.0319,0.0313,0.0312,0.0333,0.0255,0.0255,0.0117,0.0041,-0.0073,-0.0192,-0.0195,-0.029,-0.0315,-0.0288,-0.0285,-0.0313,-0.0312,-0.0313,-0.0313,-0.0312,-0.0312,0,0.0226,0.0233,0.0266,0.0292,0.0309,0.0338,0.0379,0.04,0.0393,0.042,0.0418,0.0346,0.0246,0.0106,-0.0048,-0.0146,-0.0268,-0.0312,-0.0257,-0.0279,-0.0345,-0.0342,-0.0384,-0.0385,-0.0385,-0.0385,-0.0386,0,0.0238,0.0258,0.0305,0.0335,0.0352,0.0395,0.043,0.0442,0.0468,0.0478,0.0498,0.042,0.0354,0.0152,-0.0015,-0.0227,-0.0265,-0.033,-0.0354,-0.0333,-0.0353,-0.0349,-0.0345,-0.0386,-0.0386,-0.0386,-0.0386,0,0.0264,0.0284,0.0313,0.0377,0.0424,0.0477,0.0527,0.0558,0.0578,0.0577,0.0577,0.047,0.0359,0.0175,0.0013,-0.0146,-0.029,-0.0334,-0.0335,-0.0358,-0.0335,-0.0354,-0.035,-0.0387,-0.0387,-0.0387,-0.0387,0,0.0288,0.0314,0.0359,0.0416,0.048,0.0544,0.0565,0.0605,0.0635,0.0647,0.0648,0.0522,0.0448,0.0217,0.0066,-0.0087,-0.014,-0.02,-0.021,-0.0211,-0.0155,-0.01,-0.0093,0,0,0,0,0,0.0306,0.0339,0.0393,0.0457,0.0521,0.0563,0.0626,0.064,0.0667,0.0683,0.0672,0.0571,0.0357,0.0257,0.0106,0.0031,-0.0186,-0.0154,-0.0265,-0.0392,-0.0391,-0.0357,0,0,0,0,0,0,0.0319,0.0368,0.0393,0.0484,0.0534,0.0611,0.0655,0.0673,0.0678,0.0685,0.0575,0.0528,0.0314,0.0453,0.0105,0.0056,-0.0038,-0.0255,-0.0259,-0.0393,-0.0392,-0.0391,-0.0355,0,0,0,0,0]}]]